WJA2739 TAPA-CYYZ

Flight info

Callsign WJA2739
Flight time N/A
Altitude 32000
Route ANU UB520 ELOPO B520 PJM/N0475F320 L461 OPAUL/M080F320 DCT TALSU/M080F340 L459 DARUX/N0468F340 DCT KW57A DCT WOZEE LINNG3
Aircraft B738/M-SDE2E3FGHIRWXY/LB1

Departure

Time 2026-04-20 21:19
Airport V. C. Bird International Airport (TAPA)

Arrival

Time N/A
Airport Toronto Pearson International Airport (CYYZ)
Time Latitude Longitude Altitude Speed Heading
2026-04-20 21:09 17.14118 -61.79023 43 ft 0 kts 339°
2026-04-20 21:15 17.14119 -61.79028 43 ft 1 kts 287°
2026-04-20 21:15 17.14103 -61.79035 42 ft 7 kts 185°
2026-04-20 21:16 17.14002 -61.79053 44 ft 23 kts 214°
2026-04-20 21:16 17.13851 -61.79203 44 ft 37 kts 239°
2026-04-20 21:16 17.13697 -61.79443 51 ft 39 kts 238°
2026-04-20 21:16 17.13562 -61.79669 51 ft 35 kts 238°
2026-04-20 21:17 17.13441 -61.79875 58 ft 31 kts 238°
2026-04-20 21:17 17.13331 -61.80060 57 ft 29 kts 238°
2026-04-20 21:17 17.13176 -61.80164 59 ft 27 kts 193°
2026-04-20 21:17 17.13056 -61.80304 67 ft 26 kts 238°
2026-04-20 21:18 17.12960 -61.80456 71 ft 24 kts 218°
2026-04-20 21:18 17.12861 -61.80566 66 ft 15 kts 289°
2026-04-20 21:18 17.12913 -61.80548 71 ft 10 kts 59°
2026-04-20 21:18 17.13043 -61.80323 63 ft 73 kts 58°
2026-04-20 21:19 17.13445 -61.79656 55 ft 141 kts 58°
2026-04-20 21:19 17.14040 -61.78627 287 ft 177 kts 59°
2026-04-20 21:19 17.14736 -61.77534 1166 ft 184 kts 53°
2026-04-20 21:20 17.16700 -61.75852 2855 ft 194 kts 16°
2026-04-20 21:20 17.18048 -61.75777 3587 ft 206 kts 351°
2026-04-20 21:20 17.18990 -61.76171 3738 ft 227 kts 328°
2026-04-20 21:20 17.20448 -61.77931 4074 ft 256 kts 306°
2026-04-20 21:21 17.21434 -61.79592 4345 ft 279 kts 303°
2026-04-20 21:21 17.22431 -61.81359 5035 ft 283 kts 302°
2026-04-20 21:21 17.23433 -61.83141 5797 ft 285 kts 302°
2026-04-20 21:21 17.24445 -61.84932 6560 ft 285 kts 302°
2026-04-20 21:22 17.25446 -61.86696 7282 ft 286 kts 302°
2026-04-20 21:22 17.26474 -61.88497 7939 ft 289 kts 302°
2026-04-20 21:22 17.27508 -61.90300 8702 ft 289 kts 303°
2026-04-20 21:22 17.28546 -61.92105 9427 ft 291 kts 303°
2026-04-20 21:23 17.29593 -61.93922 10090 ft 293 kts 303°
2026-04-20 21:23 17.30666 -61.95780 10449 ft 308 kts 303°
2026-04-20 21:23 17.31815 -61.97764 10592 ft 329 kts 303°
2026-04-20 21:23 17.33032 -61.99869 10732 ft 348 kts 303°
2026-04-20 21:24 17.34319 -62.02094 10862 ft 365 kts 302°
2026-04-20 21:24 17.35666 -62.04425 11001 ft 381 kts 302°
2026-04-20 21:24 17.36583 -62.06014 11193 ft 387 kts 302°
2026-04-20 21:24 17.37981 -62.08436 11641 ft 391 kts 302°
2026-04-20 21:25 17.39386 -62.10874 12197 ft 391 kts 302°
2026-04-20 21:25 17.41257 -62.14118 12867 ft 394 kts 302°
2026-04-20 21:25 17.42217 -62.15782 13171 ft 397 kts 302°
2026-04-20 21:25 17.44113 -62.19071 13822 ft 399 kts 301°
2026-04-20 21:26 17.45069 -62.20728 14113 ft 400 kts 301°
2026-04-20 21:26 17.46514 -62.23236 14568 ft 401 kts 301°
2026-04-20 21:26 17.47957 -62.25741 15009 ft 403 kts 302°
2026-04-20 21:26 17.49408 -62.28261 15427 ft 405 kts 302°
2026-04-20 21:27 17.50866 -62.30793 15836 ft 407 kts 302°
2026-04-20 21:27 17.52330 -62.33336 16241 ft 408 kts 302°
2026-04-20 21:27 17.53799 -62.35889 16655 ft 410 kts 302°
2026-04-20 21:27 17.55278 -62.38461 16998 ft 413 kts 302°
2026-04-20 21:28 17.56763 -62.41046 17383 ft 415 kts 302°
2026-04-20 21:28 17.58252 -62.43638 17763 ft 416 kts 302°
2026-04-20 21:28 17.59751 -62.46248 18125 ft 419 kts 302°
2026-04-20 21:28 17.61257 -62.48873 18420 ft 422 kts 302°
2026-04-20 21:29 17.62752 -62.51477 18740 ft 422 kts 302°
2026-04-20 21:29 17.64268 -62.54121 19060 ft 423 kts 302°
2026-04-20 21:29 17.65848 -62.56735 19358 ft 425 kts 305°
2026-04-20 21:29 17.67553 -62.59272 19636 ft 427 kts 306°
2026-04-20 21:30 17.69309 -62.61786 19914 ft 428 kts 307°
2026-04-20 21:30 17.71085 -62.64306 20186 ft 430 kts 307°
2026-04-20 21:30 17.72865 -62.66838 20453 ft 432 kts 307°
2026-04-20 21:30 17.74641 -62.69382 20727 ft 433 kts 306°
2026-04-20 21:31 17.76417 -62.71942 21005 ft 434 kts 306°
2026-04-20 21:31 17.78193 -62.74513 21264 ft 435 kts 306°
2026-04-20 21:31 17.79954 -62.77069 21514 ft 437 kts 306°
2026-04-20 21:31 17.81737 -62.79661 21769 ft 438 kts 306°
2026-04-20 21:32 17.83522 -62.82255 22007 ft 439 kts 306°
2026-04-20 21:32 17.85314 -62.84861 22246 ft 440 kts 306°
2026-04-20 21:32 17.87115 -62.87481 22470 ft 442 kts 306°
2026-04-20 21:32 17.88913 -62.90098 22692 ft 443 kts 306°
2026-04-20 21:33 17.90721 -62.92729 22912 ft 444 kts 306°
2026-04-20 21:33 17.92529 -62.95362 23129 ft 445 kts 306°
2026-04-20 21:33 17.94342 -62.98003 23326 ft 447 kts 305°
2026-04-20 21:33 17.96162 -63.00656 23512 ft 448 kts 305°
2026-04-20 21:34 17.97986 -63.03314 23692 ft 449 kts 305°
2026-04-20 21:34 17.99812 -63.05977 23864 ft 450 kts 305°
2026-04-20 21:34 18.01716 -63.08584 24027 ft 451 kts 313°
2026-04-20 21:34 18.04088 -63.10676 24170 ft 454 kts 326°
2026-04-20 21:35 18.06876 -63.12231 24358 ft 456 kts 336°
2026-04-20 21:35 18.09945 -63.13132 24514 ft 460 kts 347°
2026-04-20 21:35 18.13103 -63.13698 24702 ft 461 kts 348°
2026-04-20 21:35 18.16281 -63.14237 24834 ft 463 kts 348°
2026-04-20 21:36 18.19470 -63.14787 24983 ft 464 kts 348°
2026-04-20 21:36 18.22657 -63.15358 25137 ft 464 kts 348°
2026-04-20 21:36 18.25839 -63.15945 25299 ft 465 kts 347°
2026-04-20 21:36 18.29023 -63.16544 25453 ft 465 kts 347°
2026-04-20 21:37 18.32215 -63.17149 25606 ft 466 kts 347°
2026-04-20 21:37 18.35413 -63.17755 25756 ft 467 kts 347°
2026-04-20 21:37 18.38617 -63.18361 25907 ft 468 kts 347°
2026-04-20 21:37 18.41828 -63.18967 26048 ft 468 kts 347°
2026-04-20 21:38 18.44999 -63.19563 26189 ft 469 kts 347°
2026-04-20 21:38 18.48212 -63.20163 26380 ft 468 kts 347°
2026-04-20 21:38 18.51422 -63.20761 26630 ft 467 kts 347°
2026-04-20 21:38 18.54621 -63.21357 26881 ft 465 kts 347°
2026-04-20 21:39 18.57813 -63.21953 27104 ft 465 kts 347°
2026-04-20 21:39 18.60996 -63.22547 27320 ft 464 kts 347°
2026-04-20 21:39 18.64169 -63.23141 27565 ft 463 kts 347°
2026-04-20 21:39 18.67341 -63.23734 27825 ft 462 kts 347°
2026-04-20 21:40 18.70472 -63.24320 28066 ft 461 kts 347°
2026-04-20 21:40 18.73631 -63.24912 28308 ft 460 kts 347°
2026-04-20 21:40 18.76783 -63.25503 28569 ft 459 kts 347°
2026-04-20 21:40 18.79935 -63.26094 28847 ft 458 kts 347°
2026-04-20 21:41 18.83067 -63.26681 29131 ft 457 kts 347°
2026-04-20 21:41 18.86191 -63.27267 29407 ft 456 kts 347°
2026-04-20 21:41 18.89317 -63.27854 29649 ft 455 kts 347°
2026-04-20 21:41 18.92434 -63.28440 29906 ft 455 kts 347°
2026-04-20 21:42 18.95546 -63.29024 30179 ft 454 kts 347°
2026-04-20 21:42 18.98653 -63.29608 30437 ft 452 kts 347°
2026-04-20 21:42 19.01750 -63.30190 30666 ft 452 kts 347°
2026-04-20 21:42 19.04804 -63.30764 30881 ft 452 kts 346°
2026-04-20 21:43 19.07900 -63.31347 31097 ft 451 kts 346°
2026-04-20 21:43 19.10985 -63.31927 31356 ft 450 kts 346°
2026-04-20 21:43 19.14067 -63.32507 31601 ft 449 kts 346°
2026-04-20 21:43 19.17143 -63.33087 31822 ft 449 kts 346°
2026-04-20 21:44 19.20219 -63.33666 32027 ft 448 kts 346°
2026-04-20 21:44 19.26385 -63.34830 32028 ft 450 kts 346°
2026-04-20 21:45 19.32531 -63.35988 32032 ft 447 kts 346°
2026-04-20 21:45 19.38643 -63.37142 32031 ft 445 kts 346°
2026-04-20 21:46 19.44691 -63.38284 32035 ft 444 kts 346°
2026-04-20 21:46 19.50771 -63.39435 32031 ft 443 kts 346°
2026-04-20 21:47 19.56845 -63.40584 32037 ft 444 kts 346°
2026-04-20 21:47 19.62933 -63.41738 32042 ft 445 kts 346°
2026-04-20 21:48 19.69053 -63.42898 32041 ft 447 kts 346°
2026-04-20 21:48 19.75189 -63.44062 32038 ft 448 kts 346°
2026-04-20 21:49 19.81342 -63.45230 32038 ft 450 kts 346°
2026-04-20 21:49 19.87509 -63.46401 32037 ft 451 kts 346°
2026-04-20 21:50 19.93655 -63.47569 32039 ft 451 kts 346°
2026-04-20 21:50 19.99845 -63.48747 32040 ft 452 kts 346°
2026-04-20 21:51 20.06040 -63.49926 32041 ft 451 kts 346°
2026-04-20 21:51 20.12221 -63.51104 32045 ft 451 kts 346°
2026-04-20 21:52 20.18402 -63.52282 32042 ft 450 kts 346°
2026-04-20 21:52 20.24573 -63.53460 32044 ft 450 kts 346°
2026-04-20 21:53 20.30692 -63.54629 32048 ft 449 kts 346°
2026-04-20 21:53 20.36845 -63.55805 32044 ft 449 kts 346°
2026-04-20 21:54 20.42985 -63.56980 32042 ft 448 kts 346°
2026-04-20 21:54 20.49130 -63.58157 32047 ft 448 kts 346°
2026-04-20 21:55 20.55269 -63.59334 32042 ft 448 kts 346°
2026-04-20 21:55 20.61401 -63.60510 32052 ft 448 kts 346°
2026-04-20 21:56 20.67500 -63.61681 32055 ft 448 kts 346°
2026-04-20 21:56 20.73642 -63.62861 32052 ft 448 kts 346°
2026-04-20 21:57 20.79793 -63.64047 32050 ft 448 kts 346°
2026-04-20 21:57 20.85935 -63.65237 32055 ft 449 kts 346°
2026-04-20 21:58 20.92082 -63.66429 32053 ft 449 kts 346°
2026-04-20 21:58 20.98194 -63.67615 32051 ft 449 kts 346°
2026-04-20 21:59 21.04360 -63.68812 32056 ft 449 kts 346°
2026-04-20 21:59 21.10525 -63.70010 32052 ft 450 kts 346°
2026-04-20 22:00 21.16685 -63.71207 32059 ft 450 kts 346°
2026-04-20 22:00 21.22804 -63.72398 32058 ft 450 kts 346°
2026-04-20 22:01 21.28967 -63.73599 32062 ft 450 kts 346°
2026-04-20 22:01 21.35128 -63.74800 32056 ft 450 kts 346°
2026-04-20 22:02 21.41295 -63.76003 32062 ft 449 kts 346°
2026-04-20 22:02 21.47448 -63.77205 32067 ft 449 kts 346°
2026-04-20 22:03 21.53566 -63.78401 32060 ft 450 kts 346°
2026-04-20 22:03 21.59724 -63.79606 32061 ft 450 kts 346°
2026-04-20 22:04 21.65889 -63.80813 32060 ft 450 kts 346°
2026-04-20 22:04 21.72054 -63.82021 32069 ft 450 kts 346°
2026-04-20 22:05 21.78210 -63.83229 32064 ft 450 kts 346°
2026-04-20 22:05 21.84313 -63.84527 32059 ft 447 kts 340°
2026-04-20 22:06 21.89948 -63.87175 32073 ft 440 kts 327°
2026-04-20 22:06 21.95259 -63.90492 32066 ft 441 kts 327°
2026-04-20 22:07 22.00567 -63.93810 32069 ft 441 kts 327°
2026-04-20 22:07 22.05859 -63.97089 32073 ft 441 kts 327°
2026-04-20 22:08 22.11193 -64.00380 32069 ft 441 kts 328°
2026-04-20 22:08 22.16525 -64.03667 32071 ft 441 kts 328°
2026-04-20 22:09 22.21856 -64.06956 32075 ft 441 kts 328°
2026-04-20 22:09 22.27196 -64.10255 32079 ft 442 kts 328°
2026-04-20 22:10 22.32536 -64.13557 32072 ft 441 kts 328°
2026-04-20 22:10 22.37846 -64.16843 32073 ft 441 kts 328°
2026-04-20 22:11 22.43172 -64.20142 32080 ft 441 kts 328°
2026-04-20 22:11 22.48509 -64.23452 32077 ft 441 kts 328°
2026-04-20 22:12 22.53830 -64.26753 32073 ft 441 kts 328°
2026-04-20 22:12 22.59117 -64.30037 32080 ft 441 kts 328°
2026-04-20 22:13 22.64435 -64.33343 32075 ft 441 kts 328°
2026-04-20 22:13 22.68851 -64.36091 32078 ft 440 kts 328°
2026-04-20 22:14 22.74165 -64.39400 32076 ft 440 kts 328°
2026-04-20 22:14 22.79477 -64.42711 32079 ft 440 kts 328°
2026-04-20 22:15 22.84787 -64.46023 32077 ft 440 kts 328°
2026-04-20 22:15 22.90094 -64.49337 32078 ft 439 kts 328°
2026-04-20 22:16 22.95362 -64.52629 32077 ft 439 kts 328°
2026-04-20 22:16 23.00657 -64.55942 32082 ft 439 kts 328°
2026-04-20 22:17 23.05956 -64.59259 32076 ft 439 kts 328°
2026-04-20 22:17 23.11242 -64.62572 32079 ft 439 kts 328°
2026-04-20 22:18 23.16531 -64.65889 32079 ft 439 kts 328°
2026-04-20 22:18 23.21815 -64.69207 32077 ft 438 kts 328°
2026-04-20 22:19 23.27102 -64.72529 32083 ft 438 kts 328°
2026-04-20 22:19 23.32346 -64.75828 32082 ft 438 kts 328°
2026-04-20 22:20 23.37619 -64.79147 32079 ft 438 kts 328°
2026-04-20 22:20 23.42889 -64.82469 32081 ft 437 kts 328°
2026-04-20 22:21 23.48160 -64.85793 32077 ft 437 kts 328°
2026-04-20 22:21 23.53429 -64.89120 32083 ft 437 kts 328°
2026-04-20 22:22 23.58658 -64.92424 32081 ft 437 kts 328°
2026-04-20 22:22 23.63954 -64.95774 32081 ft 437 kts 328°
2026-04-20 22:23 23.69196 -64.99093 32079 ft 437 kts 328°
2026-04-20 22:23 23.74464 -65.02432 32082 ft 437 kts 328°
2026-04-20 22:24 23.79718 -65.05764 32081 ft 437 kts 328°
2026-04-20 22:24 23.84974 -65.09101 32081 ft 437 kts 328°
2026-04-20 22:25 23.90230 -65.12441 32078 ft 437 kts 328°
2026-04-20 22:25 23.95448 -65.15761 32083 ft 436 kts 328°
2026-04-20 22:26 24.00709 -65.19111 32081 ft 436 kts 328°
2026-04-20 22:26 24.05960 -65.22457 32082 ft 436 kts 328°
2026-04-20 22:27 24.13827 -65.27477 32082 ft 436 kts 328°
2026-04-20 22:27 24.19046 -65.30811 32081 ft 436 kts 328°
2026-04-20 22:28 24.24306 -65.34175 32081 ft 436 kts 328°
2026-04-20 22:28 24.29549 -65.37531 32083 ft 436 kts 328°
2026-04-20 22:29 24.34793 -65.40891 32081 ft 436 kts 328°
2026-04-20 22:29 24.40003 -65.44232 32081 ft 436 kts 329°
2026-04-20 22:30 24.45280 -65.47620 32083 ft 437 kts 329°
2026-04-20 22:30 24.50488 -65.50967 32083 ft 437 kts 329°
2026-04-20 22:31 24.55737 -65.54343 32080 ft 437 kts 329°
2026-04-20 22:31 24.60986 -65.57723 32084 ft 437 kts 329°
2026-04-20 22:32 24.66240 -65.61109 32082 ft 437 kts 329°
2026-04-20 22:32 24.71450 -65.64470 32082 ft 437 kts 329°
2026-04-20 22:33 24.76703 -65.67863 32079 ft 437 kts 329°
2026-04-20 22:33 24.81957 -65.71260 32076 ft 437 kts 329°
2026-04-20 22:34 24.87197 -65.74650 32078 ft 437 kts 329°
2026-04-20 22:34 24.92479 -65.77890 32077 ft 437 kts 336°
2026-04-20 22:35 24.98325 -65.79749 32087 ft 439 kts 349°
2026-04-20 22:35 25.04371 -65.80784 32078 ft 439 kts 349°
2026-04-20 22:36 25.10419 -65.81807 32077 ft 439 kts 349°
2026-04-20 22:36 25.16430 -65.82853 32081 ft 439 kts 349°
2026-04-20 22:37 25.22466 -65.83922 32081 ft 440 kts 349°
2026-04-20 22:37 25.28511 -65.84999 32081 ft 440 kts 349°
2026-04-20 22:38 25.34554 -65.86077 32083 ft 440 kts 349°
2026-04-20 22:38 25.40596 -65.87156 32081 ft 440 kts 349°
2026-04-20 22:39 25.46604 -65.88229 32082 ft 440 kts 349°
2026-04-20 22:39 25.52651 -65.89310 32081 ft 440 kts 349°
2026-04-20 22:40 25.58701 -65.90392 32082 ft 440 kts 349°
2026-04-20 22:40 25.64742 -65.91474 32081 ft 439 kts 349°
2026-04-20 22:41 25.70778 -65.92557 32079 ft 439 kts 349°
2026-04-20 22:41 25.76778 -65.93634 32078 ft 439 kts 349°
2026-04-20 22:42 25.82808 -65.94717 32079 ft 439 kts 349°
2026-04-20 22:42 25.88832 -65.95801 32080 ft 438 kts 349°
2026-04-20 22:43 25.94856 -65.96886 32082 ft 438 kts 349°
2026-04-20 22:43 26.00895 -65.97971 32068 ft 442 kts 346°
2026-04-20 22:44 26.07036 -65.99084 32089 ft 451 kts 346°
2026-04-20 22:44 26.13278 -66.00216 32090 ft 459 kts 346°
2026-04-20 22:45 26.19576 -66.01355 32078 ft 462 kts 346°
2026-04-20 22:45 26.25935 -66.02503 32076 ft 463 kts 346°
2026-04-20 22:46 26.32296 -66.03654 32077 ft 463 kts 346°
2026-04-20 22:46 26.38643 -66.04804 32074 ft 462 kts 346°
2026-04-20 22:47 26.44948 -66.05949 32075 ft 461 kts 346°
2026-04-20 22:47 26.51280 -66.07100 32075 ft 460 kts 346°
2026-04-20 22:48 26.57594 -66.08250 32073 ft 459 kts 346°
2026-04-20 22:48 26.63900 -66.09399 32070 ft 458 kts 346°
2026-04-20 22:49 26.70194 -66.10547 32070 ft 457 kts 346°
2026-04-20 22:49 26.76472 -66.11694 32072 ft 457 kts 346°
2026-04-20 22:50 26.82712 -66.12835 32072 ft 457 kts 346°
2026-04-20 22:50 26.88992 -66.13985 32069 ft 457 kts 346°
2026-04-20 22:51 26.95271 -66.15136 32067 ft 457 kts 346°
2026-04-20 22:51 27.01559 -66.16290 32072 ft 458 kts 346°
2026-04-20 22:52 27.07855 -66.17447 32071 ft 458 kts 346°
2026-04-20 22:52 27.14158 -66.18606 32062 ft 459 kts 346°
2026-04-20 22:53 27.20469 -66.19768 32075 ft 460 kts 346°
2026-04-20 22:53 27.26745 -66.20925 32070 ft 460 kts 346°
2026-04-20 22:54 27.33081 -66.22094 32077 ft 461 kts 346°
2026-04-20 22:54 27.39406 -66.23262 32067 ft 461 kts 346°
2026-04-20 22:55 27.45742 -66.24434 32071 ft 461 kts 346°
2026-04-20 22:55 27.52085 -66.25608 32072 ft 461 kts 346°
2026-04-20 22:56 27.58383 -66.26776 32066 ft 462 kts 346°
2026-04-20 22:56 27.64732 -66.27954 32066 ft 462 kts 346°
2026-04-20 22:57 27.71086 -66.29135 32071 ft 462 kts 346°
2026-04-20 22:57 27.77436 -66.30316 32065 ft 462 kts 346°
2026-04-20 22:58 27.83747 -66.31492 32064 ft 463 kts 346°
2026-04-20 22:58 27.90109 -66.32678 32061 ft 463 kts 346°
2026-04-20 22:59 27.96478 -66.33867 32063 ft 463 kts 346°
2026-04-20 22:59 28.02847 -66.35058 32066 ft 464 kts 346°
2026-04-20 23:00 28.09180 -66.36243 32062 ft 464 kts 346°
2026-04-20 23:00 28.15566 -66.37440 32064 ft 465 kts 346°
2026-04-20 23:01 28.21952 -66.38638 32064 ft 466 kts 346°
2026-04-20 23:01 28.28355 -66.39841 32064 ft 466 kts 346°
2026-04-20 23:02 28.33681 -66.40842 32064 ft 467 kts 346°
2026-04-20 23:02 28.41167 -66.42252 32063 ft 469 kts 346°
2026-04-20 23:03 28.46566 -66.43270 32059 ft 470 kts 347°
2026-04-20 23:03 28.52995 -66.44483 32060 ft 471 kts 346°
2026-04-20 23:04 28.59488 -66.45710 32058 ft 473 kts 346°
2026-04-20 23:04 28.65985 -66.46939 32054 ft 474 kts 346°
2026-04-20 23:05 28.72501 -66.48173 32053 ft 475 kts 346°
2026-04-20 23:05 28.79041 -66.49413 32054 ft 476 kts 346°
2026-04-20 23:06 28.85472 -66.50636 32032 ft 456 kts 349°
2026-04-20 23:06 28.88538 -66.51216 32022 ft 436 kts 349°
2026-04-20 23:06 28.91481 -66.51773 32037 ft 425 kts 349°
2026-04-20 23:07 28.97363 -66.52894 32056 ft 432 kts 349°
2026-04-20 23:07 29.03356 -66.54039 32058 ft 440 kts 349°
2026-04-20 23:08 29.09384 -66.55190 32036 ft 442 kts 349°
2026-04-20 23:08 29.15460 -66.56351 32044 ft 443 kts 348°
2026-04-20 23:09 29.21558 -66.57516 32034 ft 444 kts 348°
2026-04-20 23:09 29.27650 -66.58683 32034 ft 444 kts 348°
2026-04-20 23:10 29.33738 -66.59850 32035 ft 443 kts 348°
2026-04-20 23:10 29.39785 -66.61011 32041 ft 443 kts 348°
2026-04-20 23:11 29.45864 -66.62179 32033 ft 442 kts 348°
2026-04-20 23:11 29.51936 -66.63347 32031 ft 442 kts 348°
2026-04-20 23:12 29.58008 -66.64517 32024 ft 442 kts 348°
2026-04-20 23:12 29.64082 -66.65689 32024 ft 442 kts 348°
2026-04-20 23:13 29.70170 -66.66865 32024 ft 443 kts 348°
2026-04-20 23:13 29.76222 -66.68035 32028 ft 444 kts 348°
2026-04-20 23:14 29.82324 -66.69217 32025 ft 445 kts 348°
2026-04-20 23:14 29.88442 -66.70403 32022 ft 446 kts 348°
2026-04-20 23:15 29.94579 -66.71598 32024 ft 447 kts 348°
2026-04-20 23:15 30.00719 -66.72805 32024 ft 448 kts 348°
2026-04-20 23:16 30.06883 -66.74020 32023 ft 449 kts 347°
2026-04-20 23:16 30.13010 -66.75227 32021 ft 450 kts 347°
2026-04-20 23:17 30.19195 -66.76447 32019 ft 450 kts 347°
2026-04-20 23:17 30.25381 -66.77669 32019 ft 451 kts 347°
2026-04-20 23:18 30.31541 -66.78887 32020 ft 451 kts 347°
2026-04-20 23:18 30.37741 -66.80115 32021 ft 452 kts 347°
2026-04-20 23:19 30.43943 -66.81344 32022 ft 452 kts 347°
2026-04-20 23:19 30.50161 -66.82579 32015 ft 453 kts 347°
2026-04-20 23:20 30.56376 -66.83814 32019 ft 453 kts 347°
2026-04-20 23:20 30.62570 -66.85047 32019 ft 454 kts 347°
2026-04-20 23:21 30.68804 -66.86289 32014 ft 454 kts 347°
2026-04-20 23:21 30.74999 -66.87525 32023 ft 455 kts 347°
2026-04-20 23:22 30.81247 -66.88774 32020 ft 456 kts 347°
2026-04-20 23:22 30.87508 -66.90027 32020 ft 456 kts 347°
2026-04-20 23:23 30.93773 -66.91282 32017 ft 457 kts 347°
2026-04-20 23:23 31.00056 -66.92543 32022 ft 458 kts 347°
2026-04-20 23:24 31.06310 -66.93799 32019 ft 459 kts 347°
2026-04-20 23:24 31.12618 -66.95066 32021 ft 460 kts 346°
2026-04-20 23:25 31.18936 -66.96333 32022 ft 460 kts 346°
2026-04-20 23:25 31.25251 -66.97601 32023 ft 461 kts 346°
2026-04-20 23:26 31.31585 -66.98875 32026 ft 462 kts 346°
2026-04-20 23:26 31.37928 -67.00153 32024 ft 462 kts 346°
2026-04-20 23:27 31.44231 -67.01425 32026 ft 463 kts 346°
2026-04-20 23:27 31.50588 -67.02710 32027 ft 463 kts 346°
2026-04-20 23:28 31.56961 -67.03998 32121 ft 469 kts 342°
2026-04-20 23:28 31.63472 -67.05324 32053 ft 480 kts 342°
2026-04-20 23:29 31.70120 -67.06671 32044 ft 488 kts 343°
2026-04-20 23:29 31.76819 -67.08028 32038 ft 489 kts 342°
2026-04-20 23:30 31.83478 -67.09387 32029 ft 489 kts 342°
2026-04-20 23:30 31.90186 -67.10761 32034 ft 489 kts 342°
2026-04-20 23:31 31.96891 -67.12135 32041 ft 488 kts 342°
2026-04-20 23:31 32.03580 -67.13508 32038 ft 487 kts 342°
2026-04-20 23:32 32.10258 -67.14881 32045 ft 487 kts 342°
2026-04-20 23:32 32.16930 -67.16254 32046 ft 486 kts 342°
2026-04-20 23:33 32.23599 -67.17629 32050 ft 486 kts 342°
2026-04-20 23:33 32.30213 -67.18996 32056 ft 485 kts 342°
2026-04-20 23:34 32.36869 -67.20372 32059 ft 485 kts 342°
2026-04-20 23:34 32.43522 -67.21749 32059 ft 485 kts 342°
2026-04-20 23:35 32.53480 -67.23816 32062 ft 486 kts 342°
2026-04-20 23:36 32.60147 -67.25202 32063 ft 486 kts 342°
2026-04-20 23:36 32.66810 -67.26589 32068 ft 486 kts 342°
2026-04-20 23:37 32.73488 -67.27982 32071 ft 487 kts 342°
2026-04-20 23:37 32.80136 -67.29370 32077 ft 487 kts 342°
2026-04-20 23:38 32.86813 -67.30767 32079 ft 487 kts 341°
2026-04-20 23:38 32.93497 -67.32168 32074 ft 488 kts 341°
2026-04-20 23:39 33.00186 -67.33571 32078 ft 488 kts 341°
2026-04-20 23:39 33.06844 -67.34971 32084 ft 488 kts 341°
2026-04-20 23:40 33.13538 -67.36381 32086 ft 489 kts 341°
2026-04-20 23:40 33.20243 -67.37796 32092 ft 489 kts 341°
2026-04-20 23:41 33.26946 -67.39213 32094 ft 489 kts 341°
2026-04-20 23:41 33.33663 -67.40635 32099 ft 489 kts 341°
2026-04-20 23:42 33.40367 -67.42057 32098 ft 489 kts 341°
2026-04-20 23:42 33.47076 -67.43481 32097 ft 489 kts 341°
2026-04-20 23:43 33.53741 -67.44899 32101 ft 489 kts 341°
2026-04-20 23:43 33.60445 -67.46328 32107 ft 489 kts 341°
2026-04-20 23:44 33.67159 -67.47760 32115 ft 490 kts 341°
2026-04-20 23:44 33.73872 -67.49195 32118 ft 490 kts 341°
2026-04-20 23:45 33.80595 -67.50635 32121 ft 490 kts 341°
2026-04-20 23:45 33.87318 -67.52077 32123 ft 490 kts 341°
2026-04-20 23:46 33.93995 -67.53511 32124 ft 491 kts 341°
2026-04-20 23:46 34.00730 -67.54960 32127 ft 491 kts 341°
2026-04-20 23:47 34.07462 -67.56410 32129 ft 491 kts 341°
2026-04-20 23:47 34.13924 -67.58577 32143 ft 472 kts 326°
2026-04-20 23:47 34.16818 -67.60367 32141 ft 461 kts 318°
2026-04-20 23:48 34.19404 -67.62578 32153 ft 453 kts 313°
2026-04-20 23:48 34.24425 -67.67190 32150 ft 454 kts 313°
2026-04-20 23:49 34.29432 -67.71783 32155 ft 455 kts 313°
2026-04-20 23:49 34.34493 -67.76386 32160 ft 456 kts 313°
2026-04-20 23:50 34.39577 -67.80994 32160 ft 457 kts 313°
2026-04-20 23:50 34.44662 -67.85606 32167 ft 457 kts 313°
2026-04-20 23:51 34.49747 -67.90226 32171 ft 457 kts 313°
2026-04-20 23:51 34.53973 -67.94072 32170 ft 457 kts 313°
2026-04-20 23:52 34.59055 -67.98704 32174 ft 457 kts 313°
2026-04-20 23:52 34.64139 -68.03345 32178 ft 456 kts 313°
2026-04-20 23:53 34.69208 -68.07980 32180 ft 456 kts 313°
2026-04-20 23:53 34.74242 -68.12591 32184 ft 455 kts 313°
2026-04-20 23:54 34.79305 -68.17235 32181 ft 455 kts 313°
2026-04-20 23:54 34.84356 -68.21876 32192 ft 455 kts 313°
2026-04-20 23:55 34.89408 -68.26525 32195 ft 455 kts 313°
2026-04-20 23:55 34.94468 -68.31189 32200 ft 455 kts 312°
2026-04-20 23:56 34.99485 -68.35820 32198 ft 455 kts 312°
2026-04-20 23:56 35.04541 -68.40495 32201 ft 455 kts 312°
2026-04-20 23:57 35.09574 -68.45156 32204 ft 456 kts 312°
2026-04-20 23:57 35.14623 -68.49839 32209 ft 456 kts 312°
2026-04-20 23:58 35.19683 -68.54539 32212 ft 456 kts 312°
2026-04-20 23:58 35.24734 -68.59240 32218 ft 457 kts 312°
2026-04-20 23:59 35.29792 -68.63954 32220 ft 457 kts 312°
2026-04-20 23:59 35.34855 -68.68680 32221 ft 457 kts 312°
2026-04-21 00:00 35.39888 -68.73385 32224 ft 457 kts 311°
2026-04-21 00:00 35.44953 -68.78129 32228 ft 457 kts 311°
2026-04-21 00:01 35.50017 -68.82879 32232 ft 457 kts 311°
2026-04-21 00:01 35.55068 -68.87625 32226 ft 457 kts 311°
2026-04-21 00:02 35.60082 -68.92344 32232 ft 457 kts 311°
2026-04-21 00:02 35.65133 -68.97105 32241 ft 457 kts 311°
2026-04-21 00:03 35.70181 -69.01871 32239 ft 457 kts 311°
2026-04-21 00:03 35.75224 -69.06641 32238 ft 457 kts 311°
2026-04-21 00:04 35.80249 -69.11401 32236 ft 457 kts 311°
2026-04-21 00:04 35.85320 -69.16212 32241 ft 457 kts 310°
2026-04-21 00:05 35.90326 -69.20970 32241 ft 457 kts 310°
2026-04-21 00:05 35.95367 -69.25770 32237 ft 457 kts 310°
2026-04-21 00:06 36.00402 -69.30572 32240 ft 457 kts 310°
2026-04-21 00:06 36.05450 -69.35393 32246 ft 458 kts 310°
2026-04-21 00:07 36.10452 -69.40181 32254 ft 458 kts 310°
2026-04-21 00:07 36.15488 -69.45013 32254 ft 457 kts 309°
2026-04-21 00:08 36.20024 -69.50323 32258 ft 445 kts 302°
2026-04-21 00:08 36.24292 -69.55872 32250 ft 445 kts 302°
2026-04-21 00:09 36.28574 -69.61441 32253 ft 446 kts 302°
2026-04-21 00:09 36.32884 -69.66985 32254 ft 447 kts 302°
2026-04-21 00:10 36.37207 -69.72517 32254 ft 447 kts 302°
2026-04-21 00:10 36.41541 -69.78063 32246 ft 447 kts 302°
2026-04-21 00:11 36.45841 -69.83575 32249 ft 447 kts 303°
2026-04-21 00:11 36.50168 -69.89132 32250 ft 447 kts 303°
2026-04-21 00:12 36.54492 -69.94696 32240 ft 447 kts 303°
2026-04-21 00:12 36.58811 -70.00264 32252 ft 446 kts 303°
2026-04-21 00:13 36.63119 -70.05827 32253 ft 446 kts 303°
2026-04-21 00:13 36.67400 -70.11365 32251 ft 445 kts 303°
2026-04-21 00:14 36.71698 -70.16934 32248 ft 445 kts 303°
2026-04-21 00:14 36.75986 -70.22500 32249 ft 444 kts 304°
2026-04-21 00:15 36.80264 -70.28063 32247 ft 444 kts 304°
2026-04-21 00:15 36.84530 -70.33619 32249 ft 443 kts 304°
2026-04-21 00:16 36.88760 -70.39139 32243 ft 442 kts 304°
2026-04-21 00:16 36.93006 -70.44688 32248 ft 441 kts 304°
2026-04-21 00:17 36.97245 -70.50237 32248 ft 441 kts 304°
2026-04-21 00:17 37.01475 -70.55786 32247 ft 440 kts 304°
2026-04-21 00:18 37.05695 -70.61330 32252 ft 440 kts 304°
2026-04-21 00:18 37.09907 -70.66874 32248 ft 439 kts 304°
2026-04-21 00:19 37.14116 -70.72422 32254 ft 439 kts 304°
2026-04-21 00:19 37.18322 -70.77977 32259 ft 439 kts 305°
2026-04-21 00:20 37.22525 -70.83538 32261 ft 439 kts 305°
2026-04-21 00:20 37.26730 -70.89110 32257 ft 439 kts 305°
2026-04-21 00:21 37.30936 -70.94694 32257 ft 440 kts 305°
2026-04-21 00:21 37.35142 -71.00287 32256 ft 440 kts 305°
2026-04-21 00:22 37.39323 -71.05857 32259 ft 441 kts 305°
2026-04-21 00:22 37.43531 -71.11473 32263 ft 441 kts 305°
2026-04-21 00:23 37.47738 -71.17096 32251 ft 441 kts 305°
2026-04-21 00:23 37.51944 -71.22729 32257 ft 442 kts 306°
2026-04-21 00:24 37.56149 -71.28369 32258 ft 442 kts 306°
2026-04-21 00:24 37.60363 -71.34032 32263 ft 442 kts 306°
2026-04-21 00:25 37.64535 -71.39649 32261 ft 442 kts 306°
2026-04-21 00:25 37.68737 -71.45316 32263 ft 441 kts 306°
2026-04-21 00:26 37.72932 -71.50984 32266 ft 441 kts 306°
2026-04-21 00:26 37.77124 -71.56658 32264 ft 441 kts 306°
2026-04-21 00:27 37.81283 -71.62297 32266 ft 440 kts 306°
2026-04-21 00:27 37.85461 -71.67971 32268 ft 440 kts 306°
2026-04-21 00:28 37.89623 -71.73634 32269 ft 439 kts 306°
2026-04-21 00:28 37.93784 -71.79307 32270 ft 439 kts 306°
2026-04-21 00:29 37.97935 -71.84975 32271 ft 438 kts 307°
2026-04-21 00:29 38.02080 -71.90646 32269 ft 438 kts 307°
2026-04-21 00:30 38.06215 -71.96312 32272 ft 437 kts 307°
2026-04-21 00:30 38.10317 -72.01945 32270 ft 437 kts 307°
2026-04-21 00:31 38.14443 -72.07620 32270 ft 436 kts 307°
2026-04-21 00:31 38.18559 -72.13291 32266 ft 436 kts 307°
2026-04-21 00:32 38.22670 -72.18965 32274 ft 436 kts 307°
2026-04-21 00:32 38.26785 -72.24656 32279 ft 436 kts 307°
2026-04-21 00:33 38.30868 -72.30312 32277 ft 437 kts 307°
2026-04-21 00:33 38.34980 -72.36019 32273 ft 437 kts 307°
2026-04-21 00:34 38.39087 -72.41729 32272 ft 437 kts 308°
2026-04-21 00:34 38.43199 -72.47457 32276 ft 438 kts 308°
2026-04-21 00:35 38.47308 -72.53190 32277 ft 438 kts 308°
2026-04-21 00:35 38.51415 -72.58930 32282 ft 438 kts 308°
2026-04-21 00:36 38.55523 -72.64684 32278 ft 438 kts 308°
2026-04-21 00:36 38.59628 -72.70443 32282 ft 438 kts 308°
2026-04-21 00:37 38.63727 -72.76204 32281 ft 438 kts 308°
2026-04-21 00:37 38.67799 -72.81938 32287 ft 438 kts 308°
2026-04-21 00:38 38.71899 -72.87722 32285 ft 438 kts 308°
2026-04-21 00:38 38.75984 -72.93495 32293 ft 437 kts 308°
2026-04-21 00:39 38.80067 -72.99276 32286 ft 437 kts 309°
2026-04-21 00:39 38.84147 -73.05064 32291 ft 437 kts 309°
2026-04-21 00:40 38.87531 -73.09872 32290 ft 437 kts 309°
2026-04-21 00:40 38.92285 -73.16641 32294 ft 436 kts 309°
2026-04-21 00:41 38.95662 -73.21457 32284 ft 436 kts 309°
2026-04-21 00:41 38.99718 -73.27252 32289 ft 436 kts 309°
2026-04-21 00:42 39.03771 -73.33052 32291 ft 436 kts 309°